TimeCST,TemperatureF,Dew PointF,Humidity,Sea Level PressureIn,VisibilityMPH,Wind Direction,Wind SpeedMPH,Gust SpeedMPH,PrecipitationIn,Events,Conditions,WindDirDegrees,DateUTC
12:53 AM,30.9,28.0,89,30.27,10.0,North,6.9,-,N/A,,Overcast,360,2013-11-26 06:53:00
1:06 AM,30.2,28.4,93,30.23,10.0,North,8.1,-,N/A,,Overcast,350,2013-11-26 07:06:00
1:53 AM,28.0,25.0,88,30.25,10.0,North,-9999.0,-,N/A,,Partly Cloudy,0,2013-11-26 07:53:00
2:53 AM,25.0,23.0,92,30.27,9.0,NNW,6.9,-,N/A,,Clear,330,2013-11-26 08:53:00
3:53 AM,25.0,21.9,88,30.26,9.0,NNW,10.4,-,N/A,,Clear,330,2013-11-26 09:53:00
4:53 AM,24.1,21.9,91,30.28,8.0,NW,8.1,-,N/A,,Clear,320,2013-11-26 10:53:00
5:53 AM,19.9,18.0,92,30.30,7.0,NNW,6.9,-,N/A,,Clear,330,2013-11-26 11:53:00
6:53 AM,26.1,21.9,84,30.30,10.0,North,11.5,-,N/A,,Clear,360,2013-11-26 12:53:00
7:53 AM,28.9,23.0,78,30.32,10.0,North,13.8,-,N/A,,Clear,360,2013-11-26 13:53:00
8:53 AM,30.9,25.0,79,30.35,10.0,NNW,11.5,-,N/A,,Clear,340,2013-11-26 14:53:00
9:53 AM,34.0,26.1,73,30.37,10.0,North,11.5,-,N/A,,Clear,360,2013-11-26 15:53:00
10:53 AM,36.0,28.0,73,30.38,10.0,NNW,10.4,-,N/A,,Clear,330,2013-11-26 16:53:00
11:53 AM,37.0,28.0,70,30.37,10.0,NNW,10.4,-,N/A,,Clear,340,2013-11-26 17:53:00
12:53 PM,39.9,27.0,60,30.35,10.0,North,16.1,-,N/A,,Clear,360,2013-11-26 18:53:00
1:53 PM,42.1,27.0,55,30.34,10.0,North,17.3,-,N/A,,Clear,10,2013-11-26 19:53:00
2:53 PM,43.0,26.1,51,30.34,10.0,North,17.3,-,N/A,,Clear,360,2013-11-26 20:53:00
3:53 PM,44.1,25.0,47,30.35,10.0,North,16.1,-,N/A,,Clear,360,2013-11-26 21:53:00
4:53 PM,42.1,26.1,53,30.36,10.0,North,16.1,-,N/A,,Clear,10,2013-11-26 22:53:00
5:53 PM,37.9,27.0,65,30.39,10.0,North,12.7,-,N/A,,Clear,10,2013-11-26 23:53:00
6:53 PM,35.1,27.0,72,30.41,10.0,North,10.4,-,N/A,,Clear,350,2013-11-27 00:53:00
7:53 PM,34.0,25.0,70,30.44,10.0,North,10.4,-,N/A,,Clear,10,2013-11-27 01:53:00
8:53 PM,32.0,25.0,75,30.45,10.0,NE,9.2,-,N/A,,Clear,40,2013-11-27 02:53:00
9:53 PM,30.9,24.1,76,30.46,10.0,NE,11.5,-,N/A,,Clear,40,2013-11-27 03:53:00
10:53 PM,28.9,23.0,78,30.48,10.0,NNE,8.1,-,N/A,,Clear,30,2013-11-27 04:53:00
11:53 PM,25.0,21.0,85,30.49,10.0,West,3.5,-,N/A,,Clear,280,2013-11-27 05:53:00